Regional Weather Roundup
Issued by NWS

Home | Current Version | Previous Version | Text Only | Print | Product List | Glossary Off
Versions: 1 2 3 4 5 6 7 8 9 10 11 12 13 14 15 16 17 18 19 20 21 22 23 24 25 26 27 28 29 30 31 32 33 34 35 36 37 38 39 40 41 42 43 44 45 46 47 48 49

000
ASUS45 KSLC 280710
RWRUT

UTAH REGIONAL WEATHER ROUNDUP
NATIONAL WEATHER SERVICE SALT LAKE CITY UT
100 AM MDT SAT MAR 28 2015

UTZ001>011-023>025-280800-

NORTHERN UTAH

CITY           SKY/WX    TMP DP  RH WIND       PRES   REMARKS
BRIGHAM CITY   CLEAR     46  37  70 CALM      30.14F
HILL AFB       CLEAR     53  29  40 E16       30.15F
LOGAN          CLEAR     43  35  73 E3        30.15F
OGDEN          CLEAR     51  30  44 S9        30.13F
PROVO AIRPORT  CLEAR     45  34  65 SE6       30.17F
SALT LAKE CITY CLEAR     53  33  46 S7        30.13F
VERNAL         CLEAR     50  28  42 NW3       30.17F
WENDOVER       CLEAR     48  27  43 W3        30.12S
HEBER CITY     CLEAR     34  28  80 E5        30.23S WCI  30
WEST JORDAN    CLEAR     48  34  57 S8        30.15F

$$

UTZ012>022-026-027-280800-

SOUTHERN/CENTRAL UTAH

CITY           SKY/WX    TMP DP  RH WIND       PRES   REMARKS
BLANDING       CLEAR     48  22  36 N12       30.29S
BRYCE CANYON   PTCLDY    36  26  67 W8        30.34F WCI  30
CEDAR CITY     CLEAR     52  24  33 SE5       30.22F
DELTA          CLEAR     46  28  49 NE3       30.16F
HANKSVILLE     CLEAR     43  19  39 CALM      30.18S
MILFORD        CLEAR     50  24  36 SW14      30.18F
MOAB/CYNLANDS  CLEAR     45  21  38 CALM      30.14F
PRICE          CLEAR     49  23  36 N10       30.21F
ST GEORGE      SUNNY     61  27  27 E8        30.13S
KANAB          CLEAR     39  25  56 NE6       30.26S WCI  35

$$

REGIONAL REPORTS     COLORADO/ARIZONA

CITY           SKY/WX    TMP DP  RH WIND       PRES   REMARKS
CRAIG, CO      CLEAR     39  31  72 CALM      30.23R
GRAND JUNCTION CLEAR     45  25  45 NE3       30.18S
RIFLE          PTCLDY    43  27  53 CALM      30.23R
MONTROSE       CLEAR     45  26  47 SE9       30.25F
CORTEZ         CLEAR     36  22  56 E6        30.26S WCI  31
PAGE, AZ       CLEAR     60  22  23 SW5       30.16S
GRAND CANYON   PTCLDY    31  20  63 CALM      30.32S
KINGMAN        CLEAR     50  24  36 S3        30.15S
FLAGSTAFF      CLEAR     37  19  48 CALM      30.34F

$$

REGIONAL REPORTS    NEVADA/IDAHO/WYOMING

CITY           SKY/WX    TMP DP  RH WIND       PRES   REMARKS
LAS VEGAS, NV  CLEAR     70  25  18 S9        30.02S
ELY            CLEAR     49  20  31 S10       30.22S
ELKO           CLEAR     41  27  57 CALM      30.13F
POCATELLO, ID  CLEAR     59  30  33 CALM      30.08F
BURLEY         CLEAR     58  29  33 S16       30.04F
EVANSTON, WY   PTCLDY    44  25  47 SE3       30.25F
ROCK SPRINGS   CLEAR     45  25  45 SW6       30.22F
KEMMERER       CLEAR     36  30  80 NW3       30.26S

$$


USA.gov is the U.S. government's official web portal to all federal, state and local government web resources and services.